User: anonymous   Login
Location: Turtle Rock Observatory
(36.6913°N, 81.9708°W)
Time: 20:55:20
(UTC-04:00)
Language:

Cosmos 1125 Rocket - Orbit

View from above orbital plane
View from above orbital plane
View from above satellite
View from above satellite

Ground track
Ground track

The orbit data is extracted from the following two-line orbital elements,

1 11511U 79078B   17113.92326851 +.00000041 +00000-0 +22709-4 0  9998
2 11511 074.0379 055.0366 0016468 309.1826 050.7864 14.36763823970560
Epoch (UTC): 23 April 2017 22:09:30
Eccentricity: 0.0016468
inclination: 74.0379°
perigee height: 757 km
apogee height: 781 km
right ascension of ascending node: 55.0366°
argument of perigee: 309.1826°
revolutions per day: 14.36763823
mean anomaly at epoch: 50.7864°
orbit number at epoch: 97056

The dashed part of the orbit path shows where the satellite is in the earth's shadow,  

DLR